[[[{"header":{"parameterUnit":"kt","parameterCategory":2,"dx":1,"dy":1,"la1":30.253999710083008,"la2":30.299108505249023,"lo1":-89.0895004272461,"lo2":-89.04439544677734,"nx":28,"ny":28,"refTime":"2022-09-18T21:00:00:Z","depth":0,"parameterNumber":1,"parameterNumberName":"U-component_of_WINDS"},"data":[-6.5755,-6.5802,-6.5728,-6.5747,-6.5683,-6.5684,-6.566,-6.5622,-6.5572,-6.5564,-6.5547,-6.5475,-6.5396,-6.5357,-6.5334,-6.5302,-6.53,-6.5373,-6.5324,-6.5064,-6.5024,-6.4985,-6.497,-6.5372,-6.5373,-6.5604,-6.5607,-6.5608,-6.558,-6.5518,-6.5505,-6.5442,-6.543,-6.5316,-6.5256,-6.5255,-6.5258,-6.5196,-6.5173,-6.5159,-6.5138,-6.503,-6.4998,-6.5019,-6.4963,-6.5016,-6.5015,-6.5005,-6.4724,-6.4709,-6.5062,-6.5062,-6.5062,-6.5062,-6.5062,-6.5061,-6.524,-6.5271,-6.5187,-6.5172,-6.5119,-6.5077,-6.5092,-6.5003,-6.4989,-6.4944,-6.4854,-6.4856,-6.4778,-6.4699,-6.4653,-6.4652,-6.458,-6.4613,-6.4622,-6.4634,-6.466,-6.4345,-6.4642,-6.4641,-6.4639,-6.4638,-6.4637,0,-6.4969,-6.4904,-6.4884,-6.4844,-6.4828,-6.4788,-6.4738,-6.4745,-6.4578,-6.4573,-6.4559,-6.4538,-6.4497,-6.4476,-6.4426,-6.4369,-6.4249,-6.4226,-6.425,-6.4297,-6.4347,-6.4326,-6.3876,-6.4219,-6.4215,-6.4212,-6.421,-6.4208,-6.4625,-6.4667,-6.454,-6.4537,-6.449,-6.4486,-6.4468,-6.4316,-6.4304,-6.422,-6.4254,-6.4228,-6.4201,-6.4191,-6.4083,-6.4052,-6.3993,-6.4134,-6.3988,-6.4032,-6.4001,-6.4002,-6.4007,-6.4166,-6.4172,-6.4176,-6.418,0,-6.444,-6.4312,-6.4351,-6.4219,-6.4187,-6.4239,-6.4127,-6.4149,-6.4056,-6.4075,-6.407,-6.3926,-6.3914,-6.3781,-6.3739,-6.3671,-6.376,-6.3701,-6.3787,-6.377,-6.3886,-6.3879,-6.4273,-6.4319,-6.3895,-6.3899,-6.3903,0,-6.4098,-6.4157,-6.3963,-6.3992,-6.4053,-6.3897,-6.3962,-6.3888,-6.3815,-6.3828,-6.3667,-6.3683,-6.3509,-6.3506,-6.3404,-6.3452,-6.3442,-6.3394,-6.3367,-6.341,-6.3418,-6.3404,-6.3386,-6.3298,-6.3296,-6.3294,-6.3292,0,-6.3824,-6.3786,-6.3831,-6.3802,-6.3665,-6.3691,-6.3635,-6.355,-6.3533,-6.3488,-6.3476,-6.3436,-6.3415,-6.3387,-6.3257,-6.3164,-6.331,-6.3154,-6.3261,-6.3265,-6.3302,-6.3302,-6.3682,-6.329,-6.329,-6.3289,-6.3288,0,-6.3527,-6.3484,-6.3568,-6.3451,-6.3447,-6.3476,-6.3425,-6.3418,-6.334,-6.3277,-6.3241,-6.3118,-6.3143,-6.3,-6.3035,-6.2951,-6.2941,-6.2894,-6.2899,-6.2896,-6.274,-6.2978,-6.335,-6.3386,-6.2892,-6.2889,-6.2885,0,-6.3252,-6.3299,-6.3163,-6.3245,-6.3249,-6.3068,-6.3097,-6.3031,-6.2949,-6.2941,-6.2848,-6.2839,-6.2703,-6.2682,-6.2716,-6.2622,-6.2731,-6.2602,-6.2597,-6.2599,-6.2629,-6.2968,-6.3058,-6.3282,-6.2841,-6.2846,-6.2849,0,-6.3021,-6.2851,-6.2875,-6.2835,-6.272,-6.272,-6.2753,-6.2708,-6.271,-6.2651,-6.2676,-6.2656,-6.2555,-6.252,-6.2413,-6.2457,-6.2653,-6.234,-6.2336,-6.2406,-6.2805,-6.2892,-6.293,-6.2572,-6.2577,-6.2581,-6.2814,0,-6.2611,-6.2615,-6.2672,-6.2586,-6.2564,-6.2605,-6.246,-6.2456,-6.2356,-6.2267,-6.2299,-6.2206,-6.216,-6.2164,-6.2065,-6.2205,-6.2161,-6.2051,-6.1903,-6.2125,-6.2199,-6.2228,-6.1806,-6.1801,-6.1797,-6.1793,0,0,-6.2382,-6.2383,-6.223,-6.2254,-6.2226,-6.2035,-6.2093,-6.2043,-6.1948,-6.1934,-6.1849,-6.181,-6.1738,-6.1792,-6.185,-6.1829,-6.1842,-6.1768,-6.202,-6.2046,-6.2069,-6.215,-6.2183,-6.1785,-6.1783,-6.1782,-6.178,0,-6.2201,-6.2129,-6.2186,-6.2128,-6.2035,-6.1936,-6.195,-6.1824,-6.1769,-6.1796,-6.1639,-6.164,-6.161,-6.1556,-6.1525,-6.1758,-6.164,-6.1754,-6.193,-6.198,-6.2012,-6.204,-6.2127,-6.2159,-6.177,-6.177,-6.1771,0,-6.1951,-6.1857,-6.1868,-6.1792,-6.1729,-6.1735,-6.1543,-6.1556,-6.1559,-6.1348,-6.1378,-6.1307,-6.122,-6.1287,-6.1312,-6.1236,-6.1465,-6.1364,-6.1387,-6.1388,-6.1429,-6.1467,-6.1502,-6.1052,-6.105,-6.1048,0,0,-6.1816,-6.1816,-6.1666,-6.1742,-6.1713,-6.1566,-6.1552,-6.145,-6.1375,-6.1346,-6.1251,-6.1184,-6.1165,-6.1156,-6.113,-6.1224,-6.1195,-6.1281,-6.1315,-6.1343,-6.136,-6.1408,-6.1446,-6.1041,-6.1041,-6.1041,0,0,-6.175,-6.1579,-6.149,-6.1559,-6.1494,-6.1351,-6.1404,-6.1291,-6.1252,-6.1231,-6.1058,-6.1033,-6.1092,-6.1027,-6.0949,-6.1075,-6.093,-6.0946,-6.1115,-6.1156,-6.1189,-6.1204,-6.074,0,0,0,0,0,-6.1489,-6.16,-6.1521,-6.151,-6.1412,-6.1395,-6.1381,-6.1241,-6.1143,-6.1188,-6.1091,-6.0962,-6.095,-6.0877,-6.087,-6.0959,-6.0949,-6.0965,-6.0981,-6.122,-6.1264,-6.1302,0,0,0,0,0,0,-6.1484,-6.1472,-6.1518,-6.1382,-6.1358,-6.1389,-6.1193,-6.1157,-6.1134,-6.111,-6.0986,-6.0958,-6.0839,-6.0871,-6.0867,-6.0954,-6.0741,-6.0956,-6.0969,-6.0982,-6.1235,-6.1271,-6.1302,0,0,0,0,0,-6.1479,-6.1469,-6.1347,-6.1379,-6.1358,-6.1198,-6.1187,-6.1156,-6.1136,-6.0984,-6.0953,-6.1032,-6.0845,-6.0831,-6.0868,-6.096,-6.0743,-6.0742,-6.0965,-6.0975,-6.0985,-6.1253,0,0,0,0,0,0,-6.1475,-6.144,-6.134,-6.1328,-6.1326,-6.1193,-6.1168,-6.1156,-6.1008,-6.0979,-6.1021,-6.1004,-6.0851,-6.0839,-6.0829,-6.097,-6.0745,-6.0744,-6.0743,-6.0973,-6.0981,-6.0989,0,0,0,0,0,0,-6.1444,-6.1432,-6.1334,-6.1274,-6.1255,-6.119,-6.1167,-6.1177,-6.1009,-6.1053,-6.1034,-6.1015,-6.0865,-6.0845,-6.0837,-6.0857,-6.0746,-6.0745,-6.0744,-6.0744,-6.098,-6.0987,0,0,0,0,0,0,-6.1437,-6.1426,-6.1276,-6.1262,-6.1244,-6.1104,-6.1195,-6.1102,-6.0959,-6.1063,-6.0942,-6.0934,-6.0875,-6.0863,-6.0843,-6.0868,-6.086,-6.0746,-6.0746,-6.0745,-6.0745,0,0,0,0,0,0,0,-6.143,-6.1537,-6.1408,-6.1251,-6.1235,-6.1222,-6.1219,-6.1216,-6.0957,-6.095,-6.0944,-6.0937,-6.0753,-6.0752,-6.075,-6.0877,0,0,-6.0746,-6.0746,0,0,0,0,0,0,0,0,-6.1538,-6.1537,-6.1407,-6.1405,-6.1403,-6.1222,-6.1219,-6.1217,-6.0956,-6.095,-6.0945,-6.094,-6.0753,-6.0752,-6.0751,0,0,0,0,0,0,0,0,0,0,0,0,0,0,0,-6.1407,-6.1405,0,-6.1221,-6.1219,-6.1217,-6.0955,-6.0951,-6.0946,-6.0942,-6.0752,-6.0752,-6.0751,0,0,0,0,0,0,0,0,0,0,0,0,0,0,0,0,0,0,0,0,0,0,0,0,0,0,0,0,0,0,0,0,0,0,0,0,0,0,0,0,0,0,0,0,0,0,0,0,0,0,0,0,0,0,0,0,0,0,0,0,0,0,0,0,0,0,0,0,0]}],[{"header":{"parameterUnit":"kt","parameterCategory":2,"dx":1,"dy":1,"la1":30.253999710083008,"la2":30.299108505249023,"lo1":-89.0895004272461,"lo2":-89.04439544677734,"nx":28,"ny":28,"refTime":"2022-09-18T21:00:00:Z","depth":0,"parameterNumber":2,"parameterNumberName":"V-component_of_WINDS"},"data":[-3.7431,-3.7487,-3.7499,-3.7567,-3.7589,-3.7637,-3.7658,-3.7685,-3.7709,-3.7766,-3.78,-3.7816,-3.7844,-3.7885,-3.7921,-3.7927,-3.7942,-3.7952,-3.7957,-3.7903,-3.7896,-3.789,-3.7879,-3.7955,-3.7955,-3.8011,-3.8012,-3.8012,-3.7387,-3.741,-3.745,-3.7497,-3.7531,-3.7528,-3.7565,-3.7592,-3.7635,-3.7665,-3.77,-3.775,-3.7791,-3.7816,-3.7856,-3.7879,-3.788,-3.7889,-3.7888,-3.7892,-3.7835,-3.7823,-3.7888,-3.7888,-3.7888,-3.7888,-3.7888,-3.7888,-3.7309,-3.7342,-3.7379,-3.7423,-3.745,-3.748,-3.7513,-3.7534,-3.7572,-3.7618,-3.7625,-3.7672,-3.7704,-3.7759,-3.778,-3.7816,-3.7807,-3.7821,-3.7825,-3.7828,-3.783,-3.7745,-3.7823,-3.7823,-3.7823,-3.7822,-3.7822,0,-3.7256,-3.7265,-3.7305,-3.7349,-3.7381,-3.7416,-3.745,-3.747,-3.7491,-3.7522,-3.7567,-3.7594,-3.7648,-3.769,-3.7731,-3.775,-3.775,-3.7752,-3.7761,-3.7759,-3.7751,-3.7756,-3.7661,-3.775,-3.7749,-3.7749,-3.7748,-3.7748,-3.7178,-3.7216,-3.7261,-3.7288,-3.731,-3.7352,-3.738,-3.7396,-3.7424,-3.7467,-3.7494,-3.7537,-3.7573,-3.7642,-3.7664,-3.7704,-3.7705,-3.7737,-3.7711,-3.7706,-3.7705,-3.7703,-3.7706,-3.7742,-3.7743,-3.7743,-3.7744,0,-3.7133,-3.7155,-3.7218,-3.726,-3.7271,-3.7309,-3.7343,-3.7376,-3.7393,-3.7441,-3.7452,-3.7479,-3.7522,-3.7541,-3.7593,-3.7601,-3.7659,-3.7659,-3.7648,-3.7649,-3.7679,-3.7676,-3.7777,-3.779,-3.7712,-3.7712,-3.7713,0,-3.7076,-3.7125,-3.7155,-3.7191,-3.7244,-3.7261,-3.7313,-3.7334,-3.7364,-3.7402,-3.7406,-3.7441,-3.7459,-3.7496,-3.7508,-3.7559,-3.7569,-3.7578,-3.7581,-3.7578,-3.7577,-3.7593,-3.759,-3.7586,-3.7585,-3.7585,-3.7585,0,-3.7004,-3.7078,-3.7136,-3.7156,-3.7206,-3.7232,-3.7253,-3.7288,-3.7315,-3.7352,-3.7369,-3.7411,-3.7434,-3.7465,-3.7481,-3.7462,-3.7543,-3.7521,-3.7553,-3.7552,-3.7571,-3.757,-3.7653,-3.7584,-3.7584,-3.7584,-3.7583,0,-3.6962,-3.7002,-3.7083,-3.7124,-3.7143,-3.7181,-3.7224,-3.7261,-3.7297,-3.7308,-3.7338,-3.7343,-3.7391,-3.7367,-3.7431,-3.7403,-3.7424,-3.7438,-3.744,-3.7446,-3.742,-3.7465,-3.7542,-3.7551,-3.745,-3.7449,-3.7448,0,-3.6873,-3.6961,-3.6978,-3.7053,-3.7097,-3.71,-3.7142,-3.7175,-3.7193,-3.7231,-3.725,-3.7293,-3.728,-3.7296,-3.7326,-3.7347,-3.7384,-3.7343,-3.7395,-3.7396,-3.7385,-3.7457,-3.7464,-3.7523,-3.7434,-3.7435,-3.7436,0,-3.6807,-3.687,-3.6883,-3.6907,-3.6956,-3.6993,-3.7041,-3.7089,-3.7113,-3.715,-3.719,-3.7251,-3.7243,-3.727,-3.728,-3.7309,-3.7359,-3.7297,-3.7298,-3.7308,-3.7429,-3.7435,-3.7445,-3.7359,-3.736,-3.7362,-3.7425,0,-3.6738,-3.6787,-3.6822,-3.6877,-3.6909,-3.6958,-3.6982,-3.7011,-3.7018,-3.7037,-3.7096,-3.7129,-3.7177,-3.7194,-3.7201,-3.7263,-3.7256,-3.7248,-3.7227,-3.7274,-3.7295,-3.7304,-3.7193,-3.7192,-3.7192,-3.7192,0,0,-3.6647,-3.6718,-3.6736,-3.6786,-3.6814,-3.6818,-3.6869,-3.6896,-3.6952,-3.697,-3.6959,-3.705,-3.7078,-3.7147,-3.7163,-3.7183,-3.7196,-3.718,-3.7251,-3.7258,-3.7264,-3.7286,-3.7295,-3.7191,-3.7191,-3.7191,-3.7191,0,-3.6628,-3.666,-3.6711,-3.6741,-3.6786,-3.6805,-3.6817,-3.6863,-3.6878,-3.6937,-3.6939,-3.6977,-3.7051,-3.708,-3.7104,-3.7171,-3.7171,-3.7184,-3.7213,-3.7246,-3.7253,-3.726,-3.7283,-3.7292,-3.719,-3.719,-3.719,0,-3.6568,-3.6603,-3.6631,-3.6698,-3.6727,-3.6772,-3.6757,-3.6806,-3.6839,-3.6841,-3.69,-3.6922,-3.6963,-3.7026,-3.7055,-3.7045,-3.7147,-3.7119,-3.7123,-3.7127,-3.716,-3.7169,-3.7176,-3.7077,-3.7077,-3.7076,0,0,-3.6548,-3.6595,-3.6638,-3.6696,-3.6714,-3.6744,-3.677,-3.6781,-3.6819,-3.6834,-3.6863,-3.6899,-3.6941,-3.6969,-3.7011,-3.7077,-3.7086,-3.7105,-3.711,-3.7114,-3.712,-3.7155,-3.7164,-3.7074,-3.7074,-3.7074,0,0,-3.6539,-3.6593,-3.6594,-3.6664,-3.6701,-3.6747,-3.678,-3.6783,-3.6823,-3.682,-3.6839,-3.685,-3.6909,-3.6931,-3.6903,-3.7004,-3.6983,-3.699,-3.6988,-3.6995,-3.7001,-3.6995,-3.6892,0,0,0,0,0,-3.6533,-3.6586,-3.6587,-3.6602,-3.6687,-3.6746,-3.6757,-3.6775,-3.676,-3.6786,-3.681,-3.6808,-3.692,-3.6896,-3.691,-3.6941,-3.7051,-3.7055,-3.7059,-3.7072,-3.7079,-3.7085,0,0,0,0,0,0,-3.654,-3.6559,-3.6585,-3.6634,-3.6653,-3.6745,-3.6723,-3.6729,-3.6758,-3.6757,-3.6804,-3.681,-3.6825,-3.689,-3.6902,-3.6931,-3.6888,-3.7052,-3.7056,-3.7059,-3.7075,-3.708,-3.7085,0,0,0,0,0,-3.6545,-3.656,-3.6691,-3.6633,-3.6649,-3.6686,-3.6721,-3.6726,-3.6749,-3.6787,-3.6793,-3.676,-3.6826,-3.6837,-3.6897,-3.6925,-3.688,-3.6884,-3.7055,-3.7058,-3.706,-3.7078,0,0,0,0,0,0,-3.6549,-3.6565,-3.6695,-3.6701,-3.6615,-3.6681,-3.6692,-3.6724,-3.6777,-3.6784,-3.6744,-3.6742,-3.6827,-3.6836,-3.6845,-3.6922,-3.6873,-3.6877,-3.688,-3.7057,-3.7059,-3.7061,0,0,0,0,0,0,-3.6556,-3.6569,-3.6698,-3.6675,-3.6678,-3.6677,-3.6687,-3.674,-3.6778,-3.6731,-3.6732,-3.6743,-3.6812,-3.6834,-3.6841,-3.6924,-3.6867,-3.6872,-3.6875,-3.6877,-3.7059,-3.706,0,0,0,0,0,0,-3.6562,-3.6573,-3.6673,-3.6676,-3.6679,-3.6743,-3.6724,-3.6809,-3.6759,-3.6728,-3.6755,-3.6753,-3.6811,-3.6819,-3.6839,-3.6919,-3.6923,-3.6867,-3.687,-3.6873,-3.6874,0,0,0,0,0,0,0,-3.6567,-3.6489,-3.6662,-3.6677,-3.6679,-3.6753,-3.6754,-3.6756,-3.6759,-3.6757,-3.6756,-3.6754,-3.6842,-3.6847,-3.6852,-3.6915,0,0,-3.6867,-3.6869,0,0,0,0,0,0,0,0,-3.6484,-3.6487,-3.6662,-3.6663,-3.6664,-3.6753,-3.6754,-3.6755,-3.6759,-3.6757,-3.6756,-3.6755,-3.6843,-3.6847,-3.6851,0,0,0,0,0,0,0,0,0,0,0,0,0,0,0,-3.6662,-3.6663,0,-3.6753,-3.6754,-3.6755,-3.6759,-3.6757,-3.6756,-3.6755,-3.6844,-3.6847,-3.6851,0,0,0,0,0,0,0,0,0,0,0,0,0,0,0,0,0,0,0,0,0,0,0,0,0,0,0,0,0,0,0,0,0,0,0,0,0,0,0,0,0,0,0,0,0,0,0,0,0,0,0,0,0,0,0,0,0,0,0,0,0,0,0,0,0,0,0,0,0]}]]]